This demonstration page uses our WeatherBlox Daily Observations layout. Learn more.

Hourly Observations for July 15, 2019

Temp ( °F °C ) Dew Point ( °F °C ) Humidity (%) Winds ( mph kmh ) Pressure ( in mb ) Visibility ( mi km ) Precip ( " mm )
12:15 am 00:15 Clear 72 22.2 67 19.6 85 85 S 3 6 29.91 1013 10 16.09344 0 0
12:35 am 00:35 Clear 72 22.1 67 19.6 86 86 S 5 7 29.91 1013 10 16.09344 0 0
12:55 am 00:55 Clear 71 21.6 67 19.6 88 88 S 6 9 29.91 1013 10 16.09344 0 0
1:15 am 01:15 Clear 71 21.6 67 19.5 88 88 S 5 7 29.91 1013 10 16.09344 0 0
1:35 am 01:35 Clear 71 21.5 67 19.7 90 90 S 3 6 29.91 1013 10 16.09344 0 0
1:55 am 01:55 Clear 71 21.5 68 19.8 90 90 S 5 7 29.91 1013 10 16.09344 0 0
2:15 am 02:15 Clear 71 21.7 68 19.8 89 89 S 5 7 29.91 1013 10 16.09344 0 0
2:35 am 02:35 Clear 71 21.5 68 19.8 90 90 S 5 7 29.91 1013 10 16.09344 0 0
2:55 am 02:55 Clear 71 21.5 67 19.7 90 90 S 6 9 29.91 1013 10 16.09344 0 0
3:15 am 03:15 Clear 71 21.5 67 19.7 90 90 SSW 6 9 29.91 1013 10 16.09344 0 0
3:35 am 03:35 Clear 70 21.3 67 19.7 91 91 SSE 5 7 29.88 1012 10 16.09344 0 0
3:55 am 03:55 Clear 70 21.1 68 20 93 93 SSE 5 7 29.88 1012 10 16.09344 0 0
4:15 am 04:15 Clear 70 21.1 68 20 93 93 S 6 9 29.88 1012 10 16.09344 0 0
4:35 am 04:35 Clear 71 21.5 68 20 91 91 S 8 13 29.88 1012 10 16.09344 0 0
4:55 am 04:55 Clear 71 21.5 68 20 91 91 S 6 9 29.91 1013 10 16.09344 0 0
5:15 am 05:15 Clear 70 21 68 19.9 93 93 S 5 7 29.91 1013 10 16.09344 0 0
5:35 am 05:35 Clear 70 20.9 67 19.7 93 93 SSW 5 7 29.91 1013 10 16.09344 0 0
5:55 am 05:55 Clear 69 20.8 68 20 95 95 SSW 8 13 29.88 1012 10 16.09344 0 0
6:15 am 06:15 Clear 69 20.7 68 20 96 96 SSW 8 13 29.91 1013 10 16.09344 0 0
6:35 am 06:35 Sunny 70 21 68 20 94 94 S 6 9 29.91 1013 10 16.09344 0 0
6:55 am 06:55 Sunny 69 20.7 68 20.1 96 96 S 5 7 29.91 1013 10 16.09344 0 0
7:15 am 07:15 Sunny 70 21.1 68 20.2 95 95 SSW 6 9 29.91 1013 10 16.09344 0 0
7:35 am 07:35 Sunny 71 21.5 68 20.2 92 92 S 5 7 29.91 1013 10 16.09344 0 0
7:55 am 07:55 Sunny 71 21.7 69 20.3 92 92 S 3 6 29.91 1013 10 16.09344 0 0
8:15 am 08:15 Sunny 71 21.5 69 20.6 95 95 S 3 6 29.91 1013 10 16.09344 0 0
8:35 am 08:35 Sunny 73 22.9 70 21 89 89 S 7 11 29.91 1013 10 16.09344 0 0
8:55 am 08:55 Sunny 73 23 70 21 89 89 S 8 13 29.91 1013 10 16.09344 0 0
9:15 am 09:15 Sunny 76 24.3 71 21.6 85 85 S 9 15 29.88 1012 10 16.09344 0 0
9:35 am 09:35 Sunny 78 25.4 71 21.8 81 81 S 10 17 29.85 1011 10 16.09344 0 0
9:55 am 09:55 Sunny 80 26.5 71 21.5 74 74 S 13 20 29.83 1010 10 16.09344 0 0
10:15 am 10:15 Sunny 81 27.4 71 21.4 70 70 SSW 16 26 29.83 1010 10 16.09344 0 0
10:35 am 10:35 Sunny 82 28 71 21.7 69 69 S 13 20 29.83 1010 10 16.09344 0 0
10:55 am 10:55 Sunny 83 28.5 71 21.7 67 67 SSW 12 19 29.83 1010 10 16.09344 0 0
11:15 am 11:15 Sunny 84 29 71 21.8 65 65 S 12 19 29.83 1010 10 16.09344 0 0
11:35 am 11:35 Sunny 85 29.2 71 21.9 65 65 S 10 17 29.83 1010 10 16.09344 0 0
11:55 am 11:55 Sunny 85 29.7 71 21.9 63 63 S 10 17 29.83 1010 10 16.09344 0 0
12:15 pm 12:15 Sunny 86 30 70 21 59 59 SSW 12 19 29.83 1010 10 16.09344 0 0
12:35 pm 12:35 Sunny 87 30.5 69 20.3 54 54 SSW 12 19 29.8 1009 10 16.09344 0 0
12:55 pm 12:55 Sunny 87 30.7 72 22.3 61 61 S 10 17 29.8 1009 10 16.09344 0 0
1:15 pm 13:15 Sunny 87 30.8 72 22.3 61 61 S 8 13 29.8 1009 10 16.09344 0 0
1:35 pm 13:35 Sunny 88 31 71 21.8 58 58 S 9 15 29.8 1009 10 16.09344 0 0
1:55 pm 13:55 Sunny 89 31.5 71 21.7 56 56 S 8 13 29.8 1009 10 16.09344 0 0
2:15 pm 14:15 Sunny 89 31.6 71 21.9 56 56 S 12 19 29.8 1009 10 16.09344 0 0
2:35 pm 14:35 Sunny 89 31.6 72 22.4 58 58 S 9 15 29.8 1009 10 16.09344 0 0
2:55 pm 14:55 Sunny 89 31.9 71 21.4 54 54 S 10 17 29.77 1008 10 16.09344 0 0
3:15 pm 15:15 Sunny 90 32 70 21.1 52 52 S 10 17 29.77 1008 10 16.09344 0 0
3:35 pm 15:35 Sunny 90 32.4 68 19.9 48 48 S 10 17 29.77 1008 10 16.09344 0 0
3:55 pm 15:55 Sunny 91 32.6 70 21 50 50 S 9 15 29.77 1008 10 16.09344 0 0
4:15 pm 16:15 Sunny 91 32.6 69 20.7 49 49 S 9 15 29.77 1008 10 16.09344 0 0
4:35 pm 16:35 Sunny 91 32.7 71 21.7 52 52 S 8 13 29.74 1007 10 16.09344 0 0
4:55 pm 16:55 Sunny 91 32.9 70 21.3 50 50 S 10 17 29.74 1007 10 16.09344 0 0
5:15 pm 17:15 Sunny 91 32.8 70 20.9 50 50 S 10 17 29.74 1007 10 16.09344 0 0
5:35 pm 17:35 Sunny 91 32.6 70 21.2 51 51 S 6 9 29.74 1007 10 16.09344 0 0
5:55 pm 17:55 Sunny 91 32.6 70 21.2 51 51 S 6 9 29.74 1007 10 16.09344 0 0
6:15 pm 18:15 Sunny 91 32.5 71 21.4 52 52 S 8 13 29.74 1007 10 16.09344 0 0
6:35 pm 18:35 Sunny 90 32.3 72 22.3 56 56 SSE 7 11 29.74 1007 10 16.09344 0 0
6:55 pm 18:55 Sunny 90 32 73 22.6 58 58 SSE 7 11 29.74 1007 10 16.09344 0 0
7:15 pm 19:15 Sunny 89 31.4 74 23.3 62 62 SE 6 9 29.74 1007 10 16.09344 0 0
7:35 pm 19:35 Sunny 88 31 75 23.7 65 65 SE 6 9 29.74 1007 10 16.09344 0 0
7:55 pm 19:55 Sunny 86 30.1 75 23.9 69 69 SE 7 11 29.74 1007 10 16.09344 0 0
8:15 pm 20:15 Sunny 85 29.2 75 23.7 72 72 ESE 6 9 29.77 1008 10 16.09344 0 0
8:35 pm 20:35 Sunny 83 28.1 74 23.5 76 76 ESE 6 9 29.77 1008 10 16.09344 0 0
8:55 pm 20:55 Sunny 81 27.2 74 23.5 80 80 ESE 6 9 29.77 1008 10 16.09344 0 0
9:15 pm 21:15 Clear 79 26.1 74 23.5 86 86 E 7 11 29.77 1008 10 16.09344 0 0
9:35 pm 21:35 Clear 79 26 74 23.2 85 85 SE 7 11 29.77 1008 10 16.09344 0 0
9:55 pm 21:55 Clear 78 25.4 74 23.5 89 89 SE 7 11 29.8 1009 10 16.09344 0 0
10:15 pm 22:15 Clear 77 25.1 74 23.3 90 90 ESE 8 13 29.8 1009 10 16.09344 0 0
10:35 pm 22:35 Clear 77 25.1 73 23 88 88 SE 7 11 29.83 1010 10 16.09344 0 0
10:55 pm 22:55 Clear 77 25 73 23 89 89 SE 8 13 29.83 1010 10 16.09344 0 0
11:15 pm 23:15 Clear 77 24.8 73 22.5 87 87 SE 8 13 29.83 1010 10 16.09344 0 0
11:35 pm 23:35 Clear 76 24.5 72 22.1 87 87 SE 9 15 29.83 1010 10 16.09344 0 0
11:55 pm 23:55 Clear 76 24.4 71 21.7 85 85 SSE 8 13 29.83 1010 10 16.09344 0 0

Powered by AerisWeather